Date,TemperatureHighF,TemperatureAvgF,TemperatureLowF,DewpointHighF,DewpointAvgF,DewpointLowF,HumidityHigh,HumidityAvg,HumidityLow,PressureMaxIn,PressureMinIn,WindSpeedMaxMPH,WindSpeedAvgMPH,GustSpeedMaxMPH,PrecipitationSumIn
2014-1-1,-1.0,-7.6,-16.0,-9.0,-14.8,-22.1,73,70,67,30.58,30.50,6,1,8,0.00
2014-1-2,3.0,-14.3,-25.0,-9.9,-23.0,-31.9,74,64,51,30.57,30.42,7,0,10,0.00
2014-1-3,23.0,5.6,-24.0,18.6,-1.5,-31.4,83,72,66,30.41,29.44,18,6,23,0.00
2014-1-4,26.0,12.5,-7.0,22.4,4.5,-15.1,86,70,55,30.34,29.48,16,6,29,0.00
2014-1-5,-7.0,-14.5,-24.0,-15.7,-22.5,-32.8,75,66,57,30.46,30.34,17,3,22,0.00
2014-1-6,-14.0,-21.4,-27.0,-24.5,-29.6,-34.3,70,65,56,30.37,30.23,15,4,19,0.00
2014-1-7,-1.0,-14.2,-28.0,-10.5,-21.7,-34.7,75,68,62,30.36,30.19,9,2,13,0.00
2014-1-8,-1.0,-16.8,-27.0,-10.9,-24.3,-33.2,75,68,59,30.55,30.36,6,1,10,0.00
2014-1-9,17.0,1.8,-27.0,12.2,-5.6,-34.0,81,71,60,30.50,29.97,13,4,19,0.00
2014-1-10,28.0,23.8,17.0,25.2,20.2,12.2,89,86,81,29.97,29.54,12,4,19,0.00
2014-1-11,30.0,26.0,18.0,26.9,22.5,14.0,90,87,79,29.73,29.54,10,4,18,0.00
2014-1-12,38.0,30.4,21.0,30.1,25.0,17.7,88,80,70,29.67,29.41,9,4,14,0.00
2014-1-13,30.0,25.1,18.0,26.0,17.9,10.5,86,74,65,29.72,29.53,14,4,16,0.00
2014-1-14,22.0,14.3,1.0,15.6,8.1,-4.2,84,76,67,30.19,29.61,13,5,21,0.00
2014-1-15,22.0,3.6,-16.0,17.9,-1.5,-21.1,85,79,72,30.21,29.42,14,3,21,0.00
2014-1-16,31.0,16.6,7.0,27.6,9.6,-2.1,87,74,57,29.95,29.38,22,7,31,0.00
2014-1-17,14.0,5.8,-1.0,1.5,-2.6,-9.9,76,68,55,30.11,29.85,14,4,19,0.00
2014-1-18,22.0,13.2,6.0,10.7,5.9,-1.1,79,72,59,29.99,29.69,10,3,15,0.00
2014-1-19,34.0,24.7,15.0,26.3,19.3,11.3,86,80,70,29.77,29.50,11,3,14,0.00
2014-1-20,25.0,7.8,-11.0,18.5,-1.5,-22.3,79,65,51,30.52,29.76,12,5,18,0.00
2014-1-21,-1.0,-10.1,-27.0,-6.7,-18.9,-34.5,76,64,57,30.54,30.06,7,1,13,0.00
2014-1-22,2.0,-2.6,-10.0,-2.7,-10.8,-17.9,80,68,55,30.57,30.03,20,7,28,0.00
2014-1-23,-3.0,-12.4,-23.0,-9.2,-20.0,-29.4,75,68,57,30.77,30.13,11,3,18,0.00
2014-1-24,28.0,18.1,-3.0,24.4,11.5,-9.2,86,75,47,30.12,29.51,23,6,31,0.00
2014-1-25,15.0,3.1,-2.0,-1.6,-11.2,-14.5,67,51,40,29.98,29.63,24,6,31,0.00
2014-1-26,12.0,2.2,-11.0,4.6,-6.0,-20.7,80,68,56,30.17,29.46,26,7,32,0.04
2014-1-27,-7.0,-14.5,-22.0,-20.0,-24.4,-29.2,68,60,51,30.46,30.17,15,5,23,0.00
2014-1-28,-4.0,-13.9,-27.0,-13.7,-22.2,-33.5,75,66,56,30.44,30.14,16,3,19,0.00
2014-1-29,22.0,6.3,-12.0,12.1,-2.9,-19.3,76,66,52,30.15,29.66,13,4,18,0.00
2014-1-30,20.0,11.1,-9.0,12.7,2.1,-18.2,80,67,51,30.15,29.64,13,4,19,0.00
2014-1-31,7.0,-8.2,-24.0,-5.8,-17.1,-30.8,75,65,54,30.22,30.11,8,2,13,0.00